Terminal Aerodrome Forecast
Issued by NWS

Home | Current Version | Previous Version | Graphics & Text | Print | Product List | Glossary Off
Versions: 1 2 3 4 5 6 7 8 9 10 11 12 13 14 15 16 17 18 19 20 21 22 23 24 25 26 27 28 29 30 31 32 33 34 35 36 37 38 39 40 41 42 43

000
FTUS43 KDDC 180540
TAFHYS
TAF
KHYS 180540Z 1806/1906 14010KT P6SM SCT060
     FM181000 15010KT 5SM BR BKN008
     FM181600 15014G20KT P6SM SCT030
      TEMPO 1822/1902 5SM -TSRA OVC030CB
     FM190200 16008KT P6SM SCT250=

USA.gov is the U.S. government's official web portal to all federal, state and local government web resources and services.